Simultaneous Nadir Overpasses (SNOs) Predictions

Prediction of SNOs between METOP-A and NPP Satellite Orbit:

Table of predicted SNOs for the next 14.0 days since TLE Epoch: 10/1/2016
Index Date (METOP-A) Time (METOP-A) Lat,Lon (METOP-A) SZA (METOP-A ) Date (NPP) Time (NPP) Lat,Lon (NPP) SZA (NPP ) Distance(km) Time Diff (sec)
1 10/03/2016 06:41:32 -73.65,-106.77 102.26 10/03/2016 06:40:26 -73.64,-109.93 102.18 99.18 66
2 10/03/2016 07:32:16 73.41, 60.01 77.53 10/03/2016 07:31:07 73.43, 57.86 77.61 68.24 69
3 10/03/2016 08:22:59 -73.33,-132.84 102.54 10/03/2016 08:21:49 -73.34,-134.64 102.47 57.41 70
4 10/03/2016 09:13:43 73.14, 34.07 77.30 10/03/2016 09:12:31 73.13, 33.15 77.32 29.74 72
5 10/03/2016 10:04:27 -73.01,-158.88 102.82 10/03/2016 10:03:13 -73.05,-159.36 102.76 16.15 74
6 10/03/2016 10:55:09 72.91, 8.25 77.11 10/03/2016 10:53:57 72.93, 8.20 77.14 2.52 72
7 10/03/2016 11:45:51 -72.89, 175.52 102.90 10/03/2016 11:44:40 -72.90, 175.58 102.88 2.29 71
8 10/03/2016 12:36:31 72.89, -17.13 77.12 10/03/2016 12:35:26 72.88, -17.08 77.12 2.10 65
9 10/03/2016 13:27:12 -72.92, 150.25 102.85 10/03/2016 13:26:10 -72.90, 150.20 102.85 2.30 62
10 10/03/2016 14:17:53 72.87, -42.52 77.13 10/03/2016 14:16:56 72.89, -42.46 77.15 2.38 57
11 10/03/2016 15:08:34 -72.90, 124.86 102.84 10/03/2016 15:07:40 -72.91, 124.82 102.82 1.92 54
12 10/03/2016 15:59:14 72.90, -67.79 77.18 10/03/2016 15:58:26 72.89, -67.84 77.18 2.19 48
13 10/03/2016 16:49:56 -72.88, 99.48 102.83 10/03/2016 16:49:09 -72.86, 99.54 102.85 2.67 47
14 10/03/2016 17:40:36 72.88, -93.17 77.19 10/03/2016 17:39:56 72.89, -93.23 77.21 2.14 40
15 10/03/2016 18:31:18 -72.86, 74.10 102.82 10/03/2016 18:30:39 -72.86, 74.16 102.81 2.00 39
16 10/03/2016 19:21:58 72.86,-118.56 77.20 10/03/2016 19:21:25 72.85,-118.50 77.19 2.43 33
17 10/03/2016 20:12:39 -72.89, 48.82 102.77 10/03/2016 20:12:09 -72.87, 48.77 102.78 2.75 30
18 10/03/2016 21:03:20 72.84,-143.94 77.21 10/03/2016 21:02:55 72.85,-143.88 77.22 2.08 25
19 10/03/2016 21:54:01 -72.87, 23.44 102.76 10/03/2016 21:53:39 -72.87, 23.39 102.75 1.68 22
20 10/03/2016 22:44:41 72.87,-169.22 77.26 10/03/2016 22:44:25 </
